Welcome to the New NWS' Forecast!
Most changes are behind the scenes, but click here for differences you might notice.
Latest weather observations around

Roanoke, Roanoke Regional Airport (KROA)

Using English Units (Switch to International System of Units)
Date/ Time (EDT) Wind (mph) Vis. (mi) Weather Sky Cond. Temp (°F) Rel. Humidity Wind Chill (°F) Heat Index (°F) Pressure Precip. (in)
Air Dwpt 6 hour Altimeter (inHg) Sea level (inHg) 1 hr 3 hr 6 hr
Max Min
Oct 18 15:54 5 10 Mostly Clear FEW250 61 33     35%     30.39 30.38      
Oct 18 14:54 5 10 Clear CLR 59 32     36%     30.41 30.4      
Oct 18 13:54 5 10 Clear CLR 57 31     37%     30.43 30.43      
Oct 18 12:54 NNE 6 10 Clear CLR 56 31     38%     30.46 30.45      
Oct 18 11:54 N 8 10 Clear CLR 54 31     41%     30.48 30.47      
Oct 18 10:54 7 10 Clear CLR 51 32     48%     30.48 30.48      
Oct 18 09:54 N 9 10 Clear CLR 49 32     52% 45   30.48 30.48      
Oct 18 08:54 N 9 10 Mostly Clear FEW200 46 31     55% 41   30.47 30.47      
Oct 18 07:54 N 11 10 Partly Cloudy SCT280 45 31     58% 39   30.43 30.43      
Oct 18 06:54 N 11 10 Partly Cloudy SCT250 46 32     58% 41   30.41 30.4      
Oct 18 05:54 NNW 11 10 Mostly Clear FEW250 47 33     58% 42   30.4 30.39      
Oct 18 04:54 NNW 14 10 Clear CLR 48 34     58% 42   30.37 30.36      
Oct 18 03:54 NNW 9 10 Clear CLR 49 34     56% 45   30.36 30.35      
Oct 18 02:54   10 Mostly Clear FEW250 51 33     50%     30.35 30.33      
Oct 18 01:54 NW 13 10 Mostly Clear FEW250 53 33     46%     30.32 30.3      
Oct 18 00:54 WNW 9 10 Clear CLR 55 36     48%     30.29 30.28      
Oct 17 23:54 NW 9 10 Mostly Clear FEW250 56 37     49%     30.27 30.26      
Oct 17 22:54   10 Mostly Clear FEW250 58 38     47%     30.26 30.24      
Oct 17 21:54   10 Clear   59 39     47%     30.24 30.23      
Oct 17 20:54 WNW 13 10 Clear CLR 58 40     51%     30.21 30.2      
Oct 17 19:54 WNW 8 10 Clear CLR 59 39     47%     30.2 30.19      
Oct 17 18:54 NW 16 10 Mostly Clear FEW250 61 37     41%     30.17 30.15      
Oct 17 17:54 WNW 14 10 Mostly Clear FEW250 64 37     37%     30.15 30.13      
Oct 17 16:54   10 Mostly Clear FEW200 66 38     36%     30.14 30.11      
Oct 17 15:54   10 Mostly Clear FEW250 67 38     34%     30.13 30.11      
Oct 17 14:54 NW 20 10 Mostly Clear and Windy FEW300 68 39     35%     30.13 30.1      
Oct 17 13:54 WNW 15 10 Mostly Clear FEW300 66 38     36%     30.13 30.11      
Oct 17 12:54 W 10 10 Mostly Clear FEW300 63 39     41%     30.16 30.15      
Oct 17 11:54 WNW 11 10 Partly Cloudy SCT300 61 36     39%     30.19 30.18      
Oct 17 10:54 WNW 8 10 Partly Cloudy SCT300 58 38     47%     30.2 30.19      
Oct 17 09:54 W 14 10 Mostly Cloudy BKN250 55 35     47%     30.21 30.19      
Oct 17 08:54 WNW 8 10 Mostly Cloudy BKN250 53 39     59%     30.19 30.18      
Oct 17 07:54 WNW 14 10 Mostly Cloudy BKN250 54 34     47%     30.17 30.16      
Oct 17 06:54   10 Partly Cloudy SCT250 55 34     45%     30.16 30.14      
Oct 17 05:54   10 Cloudy OVC240 57 41     55%     30.15 30.13      
Oct 17 04:54 NW 13 10 Mostly Cloudy BKN065 BKN080 59 47     64%     30.13 30.11      
Oct 17 03:54 Calm 10 Cloudy BKN038 BKN045 OVC060 60 57     90%     30.11 30.09      
Oct 17 02:54 Calm 10 Cloudy FEW010 OVC031 59 57     93%     30.1 30.08      
Oct 17 01:54 5 10 Cloudy OVC034 59 57     93%     30.12 30.1 0   0
Oct 17 00:54 ENE 3 10 Cloudy SCT022 OVC050 58 57     97%     30.12 30.11 0    
Notice The following observation data may not be complete
Oct 17 00:34   10 Cloudy BKN022 OVC100          %         0    
Oct 16 23:54 Calm 10 Light Rain FEW025 SCT090 OVC110 59 56     90%     30.14 30.12 0    
Oct 16 23:14 Calm 10 Light Rain FEW026 SCT075 OVC100 59 55     87%     30.14   0    
Oct 16 22:54 ENE 3 10 Light Rain BKN026 OVC039 59 55     87%     30.14 30.12 0 0  
Oct 16 21:54 NNE 3 10 Light Rain FEW020 OVC028 60 53     78%     30.14 30.12 0    
Oct 16 20:54 NNE 9 10 Cloudy BKN020 OVC028 61 53     75%     30.15 30.13 0    
Oct 16 19:54 NNE 6 10 Clear   61 53     75%     30.13 30.12      
Oct 16 18:54 NE 7 10 Cloudy OVC028 62 53     72%     30.13 30.11      
Oct 16 17:54 NNE 5 10 Cloudy OVC028 64 55     73%     30.13 30.11      
Oct 16 16:54 NE 6 10 Cloudy BKN031 BKN085 OVC120 65 55     70%     30.13 30.11      
Oct 16 15:54 NE 6 10 Mostly Cloudy SCT030 BKN120 66 55     68%     30.13 30.11      
Oct 16 14:54 Calm 10 Mostly Cloudy FEW034 BKN120 67 56     68%     30.13 30.11      
Oct 16 13:54 NW 6 10 Cloudy FEW038 SCT110 OVC190 67 54     63%     30.17 30.15      
Oct 16 12:54 Calm 10 Mostly Clear FEW024 64 53     67%     30.19 30.16      
Oct 16 11:54 Calm 10 Mostly Cloudy SCT020 BKN170 63        %     30.22 30.19      
Oct 16 10:54 3 10 Partly Cloudy SCT120 61        %     30.23 30.2      
Oct 16 09:54 WNW 7 10 Mostly Cloudy FEW120 BKN160 60        %     30.21 30.21      
Oct 16 08:54 NW 5 10 Mostly Cloudy FEW080 BKN170 59        %     30.2 30.18      
Oct 16 07:54 W 6 10 Mostly Cloudy BKN080 59        %     30.19 30.16      
Oct 16 06:54 NNW 10 10 Partly Cloudy SCT120 59        %     30.17 30.15      
Oct 16 05:54 W 6 10 Cloudy OVC220 60        %     30.17 30.14      
Oct 16 04:54 NW 11 10 Cloudy OVC220 59        %     30.15 30.12      
Oct 16 03:54 NW 13 10 Cloudy OVC220 60        %     30.14 30.11      
Oct 16 02:54 NW 7 10 Cloudy OVC049 63        %     30.15 30.12      
Oct 16 01:54 NW 13 10 Cloudy OVC032 65        %     30.14 30.11     0
Oct 16 00:54 WSW 6 10 Mostly Cloudy BKN120 66        %     30.11 30.08      
Oct 15 23:54 W 5 10 Partly Cloudy SCT120 66        %     30.12 30.09      
Oct 15 22:54 W 8 10 Cloudy OVC170 66        %     30.11 30.09   0  
Oct 15 21:54 W 10 10 Mostly Cloudy BKN070 BKN090 67 60     79%     30.12 30.1 0    
Oct 15 20:54 WSW 10 10 Light Rain OVC065 69 61     75%     30.13 30.11 0    
Oct 15 19:54 SW 5 10 Partly Cloudy SCT080 73 63     71%   73 30.09 30.07      
Oct 15 18:54 S 3 10 Partly Cloudy FEW070 SCT090 75 59     57%   75 30.07 30.05      
Oct 15 17:54 WSW 8 10 Mostly Cloudy FEW040 BKN120 78        %     30.07 30.05      
Oct 15 16:54 S 7 10 Partly Cloudy FEW070 SCT100 80 61     52%   81 30.07 30.04      
Oct 15 15:54 SW 8 10 Mostly Cloudy BKN095 77 62     60%   77 30.09 30.06      
Oct 15 14:54 SW 3 10 Mostly Cloudy BKN090 74        %     30.11        
Oct 15 13:54 Calm 10 Cloudy BKN070 OVC095 73        %     30.12 30.1      
Oct 15 12:54 S 6 10 Partly Cloudy SCT090 SCT110 69        %     30.14 30.12      
Oct 15 11:54 Calm 10 Mostly Cloudy SCT110 BKN150 67        %     30.16 30.14      
Oct 15 10:54 Calm 10 Mostly Cloudy SCT110 BKN140 60        %     30.18 30.17      
Oct 15 09:54 3 9 Cloudy SCT004 OVC110 56        %     30.19 30.18      
Oct 15 09:33 SSE 6 9 Cloudy OVC004 57        %     30.19        
Oct 15 08:54 Calm 6 Fog/Mist OVC003 54        %     30.19 30.18      
Oct 15 08:20 Calm 3 Fog/Mist OVC002 53        %     30.19        
Oct 15 07:54 Calm 5 Fog/Mist OVC003 53        %     30.18 30.18     0
Oct 15 07:23 Calm 10 Cloudy OVC004 53        %     30.18        
Oct 15 06:54 Calm 10 Clear   53        %     30.18        
Oct 15 06:09 Calm 10 Cloudy OVC004 53        %     30.19        
Oct 15 05:54 Calm 10 Cloudy OVC005 53        %     30.18 30.18      
Oct 15 04:54 Calm 10 Cloudy OVC005 53        %     30.18 30.17 0 0  
Oct 15 03:54 Calm 10 Light Rain OVC005 53        %     30.19 30.19 0    
Oct 15 02:54 Calm 10 Cloudy OVC007 53        %     30.2 30.19 0    
Oct 15 01:54 SSE 3 10 Cloudy OVC007 53        %     30.2 30.19     0
Oct 15 00:54 S 3 10 Clear   53        %     30.22 30.22      
Oct 15 00:35 SSE 5 10 Cloudy OVC008 52        %     30.21        
Oct 14 23:54 SE 3 10 Cloudy OVC010 53        %     30.23 30.23      
Oct 14 22:54 ESE 3 10 Cloudy OVC010 52        %     30.23 30.23   0  
Oct 14 21:54 SE 3 10 Cloudy OVC010 52        %     30.23 30.23 0    
Oct 14 20:54 Calm 10 Cloudy OVC010 52        %     30.23 30.23      
Oct 14 19:54 SE 6 10 Cloudy OVC011 52        %     30.22 30.22      
Oct 14 18:54 ESE 5 10 Cloudy OVC012 52 47     83%     30.21 30.21      
Oct 14 17:54 ESE 5 10 Cloudy OVC012 53 47     80%     30.21 30.21      
Oct 14 17:39 E 5 10 Cloudy OVC012 53 47     80%     30.21        
Oct 14 16:54 SE 3 10 Cloudy OVC016 53 47     80%     30.22 30.22      
Oct 14 15:54 ESE 7 10 Cloudy OVC016 53 47     80%     30.21 30.21      
Oct 14 14:54 S 3 10 Cloudy BKN016 OVC055 52 45     77%     30.22 30.22      
Oct 14 13:54 Calm 10 Cloudy SCT017 OVC055 52 45     77%     30.24 30.24     0
Oct 14 13:26 SSE 3 10 Cloudy BKN016 BKN050 OVC060 52 45     77%     30.24        
Oct 14 12:54 E 5 10 Cloudy FEW013 BKN046 OVC060 51 45     79%     30.26 30.26 0    
Oct 14 12:31 SE 3 10 Cloudy FEW011 BKN046 OVC075 51 45     79%     30.27   0    
Oct 14 11:54 Calm 10 Cloudy FEW012 BKN021 OVC040 50 45     83%     30.28 30.28      
Oct 14 10:54 ESE 3 10 Cloudy FEW015 BKN021 OVC080 49 43     80% 48   30.28 30.28 0    
Oct 14 10:28 Calm 10 Light Rain BKN022 BKN029 OVC080 48 44     86%     30.29   0    
Oct 14 09:54 Calm 10 Light Rain SCT037 BKN080 OVC090 48 42     80%     30.29 30.29 0    
Oct 14 09:35 Calm 10 Light Rain SCT037 BKN080 OVC090 48 43     81%     30.28   0    
Oct 14 08:54 SW 3 10 Light Rain OVC025 48 41     77% 47   30.28 30.28 0    
Oct 14 07:54 SSE 8 10 Cloudy OVC026 48 41     77% 44   30.23 30.23 0   0
Oct 14 06:54   10 Cloudy OVC027 48 43     83%     30.22 30.22      
Oct 14 05:54 Calm 10 Cloudy OVC028 48 45     87%     30.21 30.21      
Oct 14 04:54 Calm 10 Mostly Cloudy BKN050 48 45     87%     30.2 30.18      
Oct 14 03:54 Calm 10 Cloudy OVC055 48 45     87%     30.2 30.19      
Oct 14 02:54 Calm 10 Clear CLR 46 45     93%     30.18 30.17      
Oct 14 01:54 W 3 10 Clear CLR 46 45     93% 45   30.18 30.17      
Oct 14 00:54 NE 3 10 Clear CLR 46 43     87% 45   30.14 30.14      
Oct 13 23:54 WSW 6 10 Clear CLR 46 43     87% 43   30.16 30.16      
Oct 13 22:54 ENE 3   Clear CLR 48 43     81% 47   30.14 30.14      
Oct 13 21:54 NNE 3 10 Clear CLR 49 42     77% 48   30.13 30.12      
Oct 13 20:54 N 5 10 Clear CLR 50 41     71%     30.11 30.11      
Oct 13 19:54 5 10 Clear CLR 51 41     68%     30.08 30.08      
Oct 13 17:54 WNW 3 10 Clear CLR 59 38     45%     30.04 30.03      
May 15 14:54 S 11 10 Mostly Cloudy FEW042 BKN100 BKN160 88 68     52%   92 29.97 29.93      
May 14 23:54 ENE 3 10 Cloudy OVC070 75 63     66%   75 30.04 30      
May 14 18:54 S 11 10 Partly Cloudy FEW070 SCT100 SCT250 88 63     43%   89 29.97 29.93      
May 14 12:54 S 5 10 Mostly Clear FEW048 88 63     43%   89 30.06 30.02      
May 14 11:54 5 10 Mostly Clear FEW048 86 62     45%   87 30.07 30.03      
May 13 17:54 WSW 9 10 Clear CLR 91 54     29%   89 29.99 29.94      
May 12 17:54 WSW 6 10 Mostly Cloudy FEW080 BKN160 91 56     31%   89 30.03 29.98      
May 12 07:54 W 3 10 Partly Cloudy SCT250 71 61     70%   71 30.15 30.11      
May 12 06:20 Calm 10 Partly Cloudy SCT250 67 58     73%     30.12        
May 11 14:54 6 10 Partly Cloudy SCT060 86 55     35%   84 30.04 30      
Jun 12 02:54 WNW 5 10 Clear CLR 71 59     66%   71 30.16 30.12      
Jun 10 01:54 Calm 10 Clear CLR 59 54     83%     30.07 30.04      
Jun 09 11:54 NW 15 10 Partly Cloudy SCT043 SCT050 74 51     45%   73 29.99 29.96      
Jun 09 02:54 W 8 10 Mostly Cloudy BKN090 59 56     90%     29.9 29.88      
Jun 09 00:54 W 6 10 Cloudy OVC090 59 57     93%     29.91 29.89      
Jun 08 09:54 ENE 7 10 Mostly Cloudy BKN028 BKN035 61 52     72%     30.01 29.99      
Jun 07 22:54 NE 7 10 Mostly Cloudy FEW027 BKN041 BKN048 62 53     72%     30.04 30.02      
Jun 07 11:54 NE 8 10 Partly Cloudy SCT044 71 50     47%   70 29.96 29.93      
Jun 06 07:54 6 10 Partly Cloudy FEW040 SCT280 68 60     76%     29.83 29.8      
Jun 05 15:54 WSW 6 10 Light Rain FEW013 OVC060 68 65     90%     29.81 29.78 0